Location: Moscow
(30.9132°N, 94.8252°W)
Time: 06:06:00
(UTC+00:00)

COSMO-SKYMED 1 - Pass Details

Date: 15 November 2025
Orbit: 579 x 581 km, 97.9° (Epoch: 04 December)

Event Time Altitude Azimuth Distance (km) Brightness Sun altitude
Exits shadow 01:06:04 - 359° (N) 2,727 5.8 -22.4°
Reaches altitude 10° 01:08:13 10° 349° (N) 1,896 5.1 -22.9°
Maximum altitude 01:11:51 31° 287° (WNW) 1,018 4.2 -23.6°
Drops below altitude 10° 01:15:29 10° 224° (SW) 1,886 5.7 -24.4°
Sets 01:17:47 0° 214° (SW) 2,781 6.5 -24.9°
